REICHNBCH Weather Reports


Display with metric or nautical units.
time (UTC)temp
F
wind
direction
speed
MPH
gust
MPH
rain 1hr
in
rain 24hr
in
rain mn
in
humidity
%
barometer
mb
20260507003209 49 207 2.0 0.0 0.00 0.00 0.02 75 1011.6
20260507000209 49 305 1.0 0.0 0.00 0.00 0.02 75 1011.7
20260506233209 50 277 2.0 0.0 0.00 0.00 0.01 75 1011.7
20260506230209 50 272 5.0 0.0 0.00 0.00 0.01 75 1011.7
20260506223209 50 311 6.0 0.0 0.00 0.00 0.00 75 1011.6
20260506220209 50 336 6.0 0.0 0.00 0.00 0.00 75 1011.5
20260506213209 51 302 1.0 0.0 0.00 0.00 0.35 75 1011.2
20260506210210 51 288 0.0 0.0 0.00 0.00 0.35 75 1011.1
20260506203210 51 277 4.0 0.0 0.00 0.00 0.35 75 1011.0
20260506200210 51 294 6.0 0.0 0.00 0.00 0.35 75 1010.7
20260506193215 51 317 3.0 0.0 0.00 0.00 0.35 75 1010.5
20260506190211 51 350 5.0 0.0 0.00 0.00 0.35 75 1009.9
20260506183209 51 274 5.0 0.0 0.00 0.00 0.34 75 1009.6
20260506180216 52 250 5.0 0.0 0.00 0.00 0.32 75 1009.2
20260506173210 54 261 4.0 0.0 0.00 0.00 0.31 75 1008.9
20260506170215 54 270 0.0 0.0 0.00 0.00 0.29 75 1008.7
20260506163210 54 288 1.0 0.0 0.00 0.00 0.26 76 1008.6
20260506160210 54 328 2.0 0.0 0.00 0.00 0.22 77 1008.5
20260506153210 55 229 4.0 0.0 0.00 0.00 0.19 79 1008.3
20260506150210 54 315 2.0 0.0 0.00 0.00 0.09 81 1008.3
20260506143210 56 250 3.0 0.0 0.00 0.00 0.06 82 1007.9
20260506140210 58 183 2.0 0.0 0.00 0.00 0.03 84 1007.6
20260506133211 59 190 0.0 0.0 0.00 0.00 0.03 82 1007.0
20260506130211 62 160 0.0 0.0 0.00 0.00 0.01 75 1006.6
20260506123210 64 189 4.0 0.0 0.00 0.00 0.01 74 1006.6
20260506120210 64 257 2.0 0.0 0.00 0.00 0.01 72 1006.6
20260506113217 63 154 2.0 0.0 0.00 0.00 0.01 66 1007.0
20260506110210 62 156 6.0 0.0 0.00 0.00 0.01 71 1007.2
20260506100213 60 0 1.0 0.0 0.00 0.00 0.01 83 1007.7
20260506093211 58 0 1.0 0.0 0.00 0.00 0.01 82 1007.7
20260506090211 56 0 1.0 0.0 0.00 0.00 0.01 75 1007.8
20260506083211 53 26 2.0 0.0 0.00 0.00 0.01 74 1007.9
20260506080212 53 96 0.0 0.0 0.00 0.00 0.01 74 1008.0
20260506073211 52 96 0.0 0.0 0.00 0.00 0.01 74 1008.2
20260506070212 50 96 0.0 0.0 0.00 0.00 0.01 74 1007.9
20260506060210 48 24 0.0 0.0 0.00 0.00 0.01 75 1007.9
20260506050211 47 24 0.0 0.0 0.00 0.00 0.01 75 1008.2
20260506043211 47 24 0.0 0.0 0.00 0.00 0.01 75 1008.1
20260506040211 46 22 0.0 0.0 0.00 0.00 0.01 75 1008.3
20260506033211 46 58 0.0 0.0 0.00 0.00 0.01 76 1008.8
20260506030212 46 63 0.0 0.0 0.00 0.00 0.01 76 1008.5
20260506023211 47 41 0.0 0.0 0.00 0.00 0.01 76 1008.6
20260506020212 48 40 0.0 0.0 0.00 0.00 0.01 76 1008.9
20260506013211 48 15 2.0 0.0 0.00 0.00 0.01 76 1009.0
20260506010213 48 75 0.0 0.0 0.00 0.00 0.00 76 1009.0